Regional Weather Roundup
Issued by NWS Charleston, SC

Current Version | Previous Version | Graphics & Text | Print | Product List | Glossary On
Versions: 1 2 3 4 5 6 7 8 9 10 11 12 13 14 15 16 17 18 19 20 21 22 23 24 25 26 27 28 29 30 31 32 33 34 35 36 37 38 39 40 41 42 43 44 45 46 47 48 49 50
000 ASUS42 KCHS 260712 RWRCHS REGIONAL WEATHER ROUNDUP NATIONAL WEATHER SERVICE CHARLESTON SC 300 AM EDT TUE MAY 26 2015 NOTE: "FAIR" INDICATES FEW OR NO CLOUDS BELOW 12,000 FEET WITH NO SIGNIFICANT WEATHER AND/OR OBSTRUCTIONS TO VISIBILITY. NOT ALL STATIONS ARE QUALITY CONTROLLED BY THE NATIONAL WEATHER SERVICE. USE DATA WITH CAUTION...ESPECIALLY DEWPOINT OBSERVATIONS. SCZ027-030-031-034>040-042>050-260800- ...SOUTHEAST SOUTH CAROLINA... CITY SKY/WX TMP DP RH WIND PRES REMARKS N CHARLESTON PTCLDY 72 70 93 SE5 30.23F WATERFRONT PAR N/A 75 73 93 E9 30.20F MOUNT PLEASANT CLOUDY 73 72 94 CALM 30.23F JOHNS ISLAND CLOUDY 75 72 88 E6 30.23F PINOPOLIS N/A 72 68 88 VRB2 30.14F MONCKS CORNER FAIR 68 66 94 CALM 30.23F SUMMERVILLE FAIR 64 64 100 CALM 30.23F BEAUFORT MCAS PTCLDY 73 71 93 E5 30.22F BEAUFORT ARPT FAIR 72 72 100 CALM 30.22S HILTON HEAD IS PTCLDY 73 73 100 CALM 30.23S WALTERBORO MOSUNNY 63 63 100 CALM 30.24S ALLENDALE N/A 70 68 94 CALM 30.22S ...SOUTHERN MIDLANDS AND PEE DEE... CITY SKY/WX TMP DP RH WIND PRES REMARKS GEORGETOWN NOT AVBL KINGSTREE NOT AVBL ORANGEBURG PTCLDY 67 64 90 CALM 30.24S BARNWELL FAIR 70 70 100 E3 30.23F AIKEN FAIR 68 64 88 SE5 30.27F MANNING FAIR 61 45 55 CALM 30.24F COLUMBIA PTCLDY 70 65 84 E3 30.23F SUMTER MOCLDY 68 65 90 S1 30.23F FLORENCE PTCLDY 65 63 93 CALM 30.25F MYRTLE BEACH CLOUDY 73 66 78 SE14 30.27F N MYRTLE BEACH CLEAR 74 66 76 SE8 30.25F $$ GAZ063-065-086>088-099>101-113>116-118-119-134>141-150-260800- ...SOUTHEAST GEORGIA... CITY SKY/WX TMP DP RH WIND PRES REMARKS SAVANNAH ARPT CLEAR 73 70 90 E6 30.21F HUNTER AAF PTCLDY 73 73 100 E2 30.19F FORT STEWART PTCLDY 69 67 94 CALM 30.19 STATESBORO PTCLDY 70 32 24 CALM 30.22S SYLVANIA CLOUDY 70 70 100 CALM 30.23S FOG CLAXTON FAIR 68 68 100 CALM 30.22S FOG ...CSRA...CENTRAL AND FAR SOUTHEAST GEORGIA... CITY SKY/WX TMP DP RH WIND PRES REMARKS THOMSON MOCLDY 73 71 93 SE5 30.27S AUGUSTA-BUSH MOCLDY 69 67 93 SE3 30.22F AUGUSTA-DANIEL CLOUDY 72 68 87 SE7 30.24S SWAINSBORO PTSUNNY N/A N/A N/A SE5 30.23R VIDALIA MOCLDY 72 70 94 CALM 30.22S EASTMAN PTSUNNY 71 71 100 CALM 30.22F HAZLEHURST PTSUNNY 74 74 99 CALM 30.20S ALMA MOCLDY 72 71 97 E3 30.20S WAYCROSS MOCLDY 73 73 99 SE3 30.19F JESUP FAIR 73 72 94 CALM 30.21S BAXLEY MOCLDY 73 72 94 SE3 30.20S BRUNSWICK MOCLDY 72 70 94 CALM 30.21S SAINT SIMONS NOT AVBL $$ SCZ027-028-034-036>038-045-046-048>050-GAZ119-141-260800- ...LAKE AND SUPPLEMENTAL COASTAL OBSERVATIONS... STATION/POSITION TIME TEMP WIND PRES WAVE SWELL AIR SEA DIR/SP/G HT/PER HT/PER/DIR (UTC) (F) (DEG/KT/KT) (MB) (FT/S) (FT/S/D) UPR LAKE MARION NOT AVBL WINYAH BAY NOT AVBL LAKE MURRAY 0600 73 140/ 9/ 14 1023.7S ACE BASIN NERRS NOT AVBL FORT PULASKI 0600 75 78 110/ 7/ 9 1023.8F SAPELO ISLAND 0600 75 110/ 5 1023.0S $$ ANZ835-935-AMZ111-154-330-350-352-354-370-450-454-472-260800- ...C-MAN AND BUOY OBSERVATIONS... STATION/POSITION TIME TEMP WIND PRES WAVE SWELL AIR SEA DIR/SP/G HT/PER HT/PER/DIR (UTC) (F) (DEG/KT/KT) (MB) (FT/S) (FT/S/D) BUOY 41004 0650 77 75 160/ 8/ 10 1023.1F 4/ 6 3/ 6 BUOY 41008 0650 76 75 120/ 6/ 8 1022.8F 3/ 7 3/ 90/ 7 FOLLY BEACH CMAN 0700 74 100/ 10/ 11 1023.5F CAPERS NEARSHORE 0608 75 110/ 10/ 12 1023.9F FRIPP NEARSHORE 0600 75 120/ 10/ 12 1022.8F STATION/POSITION TIME TEMP WIND PRES WAVE SWELL AIR SEA DIR/SP/G HT/PER HT/PER/DIR (UTC) (F) (DEG/KT/KT) (MB) (FT/S) (FT/S/D) 5E ST. MARYS GA 0621 78 N/A 3/ 7 FRYING PAN BUOY 0650 76 74 140/ 12/ 14 1025.2F 4/ 6 3/130/ 6 BUOY 41025 0650 75 76 180/ 16/ 19 1025.6F 3/ 5 2/ 90/ 8 CAPE LOOKOUT NC 0700 73 170/ 14/ 15 1025.1F BUOY 41002 0650 73 74 120/ 14/ 16 1026.1F 4/ 6 2/ 90/ 7 BUOY 41010 0620 79 81 110/ 14/ 16 1022.9F ST AUGUSTINE FL 0700 78 79 150/ 10/ 11 1022.9F $$

USA.gov is the U.S. government's official web portal to all federal, state and local government web resources and services.